Mardi 12 décembre 2017   -   semaine 50                    on fête: Chantal                    soleil  (-1 mn) lever du soleil 08:19:00 coucher du soleil 17:00:00                    lune Dernier croissant
Sélection

Sélection d'un SYNOP

   Synop:       

  Période à consulter:

Actuelle
Archive     

Relevé

Dernier relevé du SYNOP pour la période choisie

Conditions météo à la station de Vichy/Charmeil (4610N 00324E)    altitude 251m

Date du relevé12/12/2017 à 01:00
Visibilité20km
Vent2 km/h OSO
Température4.1 C
Température mini / 12h0.0 C
Humidité75.7 %
Point de rosée0.2 C
Pression absolue971.9 hPa
Pression relative1002.2 hPa
Variation pression5.2 hPa en hausse puis stationnaire ou en hausse, puis en hausse plus lente
Précipitations0.2 mm les 6 dernières heures

24h

Historique de la période choisie

Certaines stations ne diffusent pas en continu, d'où l'absence possible de données à certaines heures. Le tableau ci-dessous récapitule l'historique des relevés de la station de Vichy/Charmeil.

Date - Heure Base des nuages Visibilité Nébulosité Vent - Secteur Température Humidité Point rosée Pression / Géopotentiel Précipitations Temps
12/12 01:00 20km 2 km/h OSO 4.1 C 75.7 % 0.2 C 1002.2 hPa 0.2 mm/6h
12/12 00:00 20km 2 km/h NO 4.4 C 73.1 % 0.0 C 1000.6 hPa
11/12 23:00 20km 6 km/h ONO 4.9 C 70.0 % -0.1 C 998.8 hPa
11/12 22:00 20km 6 km/h ONO 5.8 C 67.7 % 0.3 C 996.7 hPa
11/12 21:00 20km 4 km/h OSO 7.0 C 75.1 % 2.9 C 994.3 hPa
11/12 20:00 17km 6 km/h O 6.9 C 80.1 % 3.7 C 992.1 hPa
11/12 19:00 20km 6 km/h SSO 8.4 C 68.8 % 3.0 C 989.7 hPa 0.8 mm/12h
11/12 18:00 20km 7 km/h SSO 9.0 C 63.7 % 2.5 C 987.9 hPa
11/12 17:00 20km 6 km/h S 8.6 C 66.9 % 2.8 C 986.5 hPa
11/12 16:00 20km 6 km/h S 9.2 C 63.8 % 2.7 C 985.5 hPa
11/12 15:00 20km 11 km/h S 9.2 C 62.9 % 2.5 C 983.9 hPa
11/12 14:00 20km 11 km/h SSO 10.4 C 56.8 % 2.2 C 983.4 hPa
11/12 13:00 20km 11 km/h S 10.8 C 61.1 % 3.6 C 982.5 hPa 0.8 mm/6h
11/12 12:00 20km 9 km/h S 10.2 C 60.1 % 2.8 C 982.1 hPa
11/12 11:00 20km 11 km/h S 10.0 C 60.0 % 2.6 C 983.3 hPa
11/12 10:00 20km 11 km/h S 9.4 C 67.1 % 3.6 C 982.8 hPa
11/12 09:00 20km 11 km/h SO 9.7 C 68.1 % 4.1 C 982.3 hPa
11/12 08:00 20km 7 km/h SSO 11.1 C 76.9 % 7.2 C 980.1 hPa
11/12 07:00 20km 11 km/h S 12.7 C 66.9 % 6.7 C 978.5 hPa 1 mm/12h
11/12 06:00 20km 11 km/h S 13.0 C 62.9 % 6.1 C 977.1 hPa
11/12 05:00 20km 13 km/h S 12.1 C 67.2 % 6.2 C 978.1 hPa
11/12 04:00 20km 9 km/h S 11.4 C 70.9 % 6.3 C 979.5 hPa
11/12 03:00 20km 11 km/h SSE 10.5 C 75.7 % 6.4 C 980.8 hPa
11/12 02:00 20km 9 km/h S 10.3 C 76.2 % 6.3 C 982.9 hPa

Source: ogimet